Location: Eschertshofen
(49.3064°N, 11.5756°E)
Time: 12:44:09
(UTC+00:00)

Cosmos 2082 Rocket - Pass Details

Date: 18 September 2020
Orbit: 834 x 852 km, 71.0° (Epoch: 21 October)

Event Time Altitude Azimuth Distance (km) Brightness Sun altitude
Rises 20:39:16 0° 332° (NNW) 3,394 6.4 -30.1°
Reaches altitude 10° 20:41:45 10° 337° (NNW) 2,456 5.4 -30.4°
Enters shadow 20:46:14 50° 12° (NNE) 1,058 2.8 -30.9°
